{"data":{"norad_id":62469,"epoch":"2026-09-21T00:33:15.816672Z","epoch_age_seconds":129307,"freshness":"FRESH","line1":"1 62469U 24254H   26264.02309973  .00122337  00000+0  94231-3 0  9996","line2":"2 62469  43.0001 125.4387 0001982 261.9524  98.1119 15.70854890100115","mean_motion":15.7085489,"eccentricity":0.0001982,"inclination_deg":43.0001,"raan_deg":125.4387,"arg_perigee_deg":261.9524,"mean_anomaly_deg":98.1119,"bstar":0.00094231,"rev_number":10011,"period_min":91.669829541034,"perigee_km":355.11770785843,"apogee_km":357.78729913762,"semimajor_km":6734.589503498,"source":"CELESTRAK","updated_at":"2026-09-22T09:00:49.612455Z"}}